LZB455 LBSF-LIMC

Flight info

Callsign LZB455
Flight time 1h 45m
Altitude 35000
Route OGOTA L615 DOLAP DCT RAVAK DCT MARIL DCT EVTON DCT PEVAL DCT ADOSA DCT IDREK DCT ELTAR DCT NOBMI DCT NEVNI DCT OSKOR DCT LEGLO DCT PEXUG
Aircraft A320/M-SDE3FGHIRWY/LB1

Departure

Time 2026-05-06 10:21
Airport Sofia Airport (LBSF)

Arrival

Time 2026-05-06 12:06
Airport Milan Malpensa International Airport (LIMC)
Time Latitude Longitude Altitude Speed Heading
2026-05-06 10:04 42.69005 23.40637 1761 ft 0 kts 197°
2026-05-06 10:12 42.69001 23.40635 1761 ft 1 kts 197°
2026-05-06 10:12 42.68988 23.40630 1761 ft 2 kts 195°
2026-05-06 10:13 42.68963 23.40630 1761 ft 4 kts 160°
2026-05-06 10:13 42.68941 23.40674 1761 ft 7 kts 108°
2026-05-06 10:13 42.68925 23.40748 1761 ft 9 kts 107°
2026-05-06 10:13 42.68905 23.40836 1761 ft 10 kts 104°
2026-05-06 10:14 42.68916 23.40934 1761 ft 10 kts 71°
2026-05-06 10:14 42.68940 23.41029 1761 ft 10 kts 71°
2026-05-06 10:14 42.68962 23.41125 1761 ft 10 kts 71°
2026-05-06 10:14 42.69006 23.41210 1761 ft 11 kts 34°
2026-05-06 10:15 42.69075 23.41207 1761 ft 10 kts 341°
2026-05-06 10:15 42.69148 23.41174 1761 ft 11 kts 342°
2026-05-06 10:15 42.69228 23.41153 1761 ft 12 kts
2026-05-06 10:15 42.69312 23.41172 1761 ft 12 kts 12°
2026-05-06 10:16 42.69400 23.41199 1760 ft 13 kts 13°
2026-05-06 10:16 42.69476 23.41256 1760 ft 13 kts 68°
2026-05-06 10:16 42.69476 23.41381 1760 ft 13 kts 94°
2026-05-06 10:16 42.69468 23.41512 1760 ft 14 kts 95°
2026-05-06 10:17 42.69461 23.41645 1760 ft 14 kts 94°
2026-05-06 10:17 42.69452 23.41780 1760 ft 14 kts 95°
2026-05-06 10:17 42.69444 23.41920 1760 ft 14 kts 95°
2026-05-06 10:17 42.69436 23.42059 1760 ft 14 kts 95°
2026-05-06 10:18 42.69427 23.42199 1760 ft 15 kts 95°
2026-05-06 10:18 42.69418 23.42340 1760 ft 15 kts 95°
2026-05-06 10:18 42.69410 23.42482 1760 ft 15 kts 95°
2026-05-06 10:18 42.69402 23.42622 1760 ft 15 kts 95°
2026-05-06 10:19 42.69429 23.42747 1760 ft 14 kts 27°
2026-05-06 10:19 42.69508 23.42691 1760 ft 14 kts 303°
2026-05-06 10:19 42.69560 23.42579 1760 ft 13 kts 301°
2026-05-06 10:19 42.69593 23.42455 1760 ft 14 kts 284°
2026-05-06 10:20 42.69610 23.42332 1760 ft 6 kts 276°
2026-05-06 10:20 42.69610 23.42328 1760 ft 0 kts 276°
2026-05-06 10:20 42.69611 23.42322 1760 ft 8 kts 276°
2026-05-06 10:20 42.69637 23.41896 1760 ft 81 kts 275°
2026-05-06 10:21 42.69700 23.40826 1761 ft 142 kts 276°
2026-05-06 10:21 42.69799 23.39285 1947 ft 173 kts 277°
2026-05-06 10:21 42.69912 23.37666 2467 ft 177 kts 277°
2026-05-06 10:21 42.70379 23.36144 3079 ft 178 kts 320°
2026-05-06 10:22 42.71469 23.35447 3701 ft 176 kts 348°
2026-05-06 10:22 42.72706 23.35161 4069 ft 190 kts 354°
2026-05-06 10:22 42.74077 23.34943 4420 ft 206 kts 353°
2026-05-06 10:22 42.75562 23.34695 4774 ft 224 kts 353°
2026-05-06 10:23 42.77223 23.34399 5095 ft 247 kts 352°
2026-05-06 10:23 42.78979 23.34074 5529 ft 265 kts 352°
2026-05-06 10:23 42.80853 23.33724 6087 ft 278 kts 352°
2026-05-06 10:23 42.82764 23.33365 6847 ft 282 kts 352°
2026-05-06 10:24 42.84719 23.33000 7676 ft 284 kts 352°
2026-05-06 10:24 42.86681 23.32748 8488 ft 287 kts 356°
2026-05-06 10:24 42.88660 23.32689 9308 ft 288 kts 359°
2026-05-06 10:24 42.90670 23.32689 10089 ft 292 kts 359°
2026-05-06 10:25 42.92709 23.32697 10690 ft 302 kts 359°
2026-05-06 10:25 42.94892 23.32694 11077 ft 320 kts 359°
2026-05-06 10:25 42.97185 23.32693 11425 ft 338 kts 359°
2026-05-06 10:25 42.99581 23.32690 11840 ft 352 kts 359°
2026-05-06 10:26 43.02053 23.32684 12521 ft 357 kts 359°
2026-05-06 10:26 43.04504 23.32556 13252 ft 358 kts 349°
2026-05-06 10:26 43.06790 23.31291 13939 ft 358 kts 322°
2026-05-06 10:26 43.08470 23.28781 14671 ft 358 kts 304°
2026-05-06 10:27 43.09883 23.25972 15301 ft 363 kts 304°
2026-05-06 10:27 43.11364 23.23163 15929 ft 367 kts 306°
2026-05-06 10:27 43.12907 23.20347 16581 ft 370 kts 307°
2026-05-06 10:27 43.14478 23.17528 17218 ft 373 kts 307°
2026-05-06 10:28 43.16057 23.14717 17857 ft 376 kts 307°
2026-05-06 10:28 43.17643 23.11904 18501 ft 378 kts 307°
2026-05-06 10:28 43.19258 23.09046 19137 ft 380 kts 307°
2026-05-06 10:28 43.20855 23.06220 19748 ft 382 kts 307°
2026-05-06 10:29 43.22498 23.03309 20338 ft 384 kts 308°
2026-05-06 10:29 43.24114 23.00449 20911 ft 386 kts 308°
2026-05-06 10:29 43.25770 22.97514 21479 ft 389 kts 308°
2026-05-06 10:29 43.27430 22.94572 22026 ft 391 kts 308°
2026-05-06 10:30 43.29073 22.91658 22493 ft 395 kts 308°
2026-05-06 10:30 43.30789 22.88612 22725 ft 405 kts 308°
2026-05-06 10:30 43.32523 22.85526 23106 ft 410 kts 308°
2026-05-06 10:30 43.34239 22.82466 23626 ft 411 kts 308°
2026-05-06 10:31 43.35910 22.79313 24136 ft 412 kts 304°
2026-05-06 10:31 43.37392 22.75894 24629 ft 414 kts 299°
2026-05-06 10:31 43.38623 22.72339 25057 ft 417 kts 294°
2026-05-06 10:31 43.39689 22.68655 25471 ft 419 kts 292°
2026-05-06 10:32 43.40738 22.64899 25887 ft 421 kts 292°
2026-05-06 10:32 43.41783 22.61126 26264 ft 423 kts 292°
2026-05-06 10:32 43.42824 22.57373 26633 ft 425 kts 292°
2026-05-06 10:32 43.43883 22.53554 26840 ft 430 kts 292°
2026-05-06 10:33 43.44950 22.49711 27123 ft 433 kts 292°
2026-05-06 10:33 43.46015 22.45865 27572 ft 431 kts 292°
2026-05-06 10:33 43.47070 22.42055 28076 ft 428 kts 292°
2026-05-06 10:33 43.48127 22.38235 28572 ft 425 kts 292°
2026-05-06 10:34 43.49172 22.34451 29009 ft 423 kts 291°
2026-05-06 10:34 43.50208 22.30685 29410 ft 423 kts 291°
2026-05-06 10:34 43.51241 22.26921 29800 ft 422 kts 291°
2026-05-06 10:34 43.52288 22.23108 30203 ft 421 kts 291°
2026-05-06 10:35 43.53309 22.19384 30590 ft 420 kts 291°
2026-05-06 10:35 43.54345 22.15608 30975 ft 419 kts 291°
2026-05-06 10:35 43.55364 22.11889 31358 ft 418 kts 291°
2026-05-06 10:35 43.56385 22.08159 31726 ft 417 kts 291°
2026-05-06 10:36 43.57408 22.04410 32084 ft 417 kts 291°
2026-05-06 10:36 43.58427 22.00677 32437 ft 416 kts 291°
2026-05-06 10:36 43.59437 21.96968 32773 ft 415 kts 291°
2026-05-06 10:36 43.60450 21.93245 33098 ft 414 kts 291°
2026-05-06 10:37 43.61458 21.89537 33399 ft 414 kts 291°
2026-05-06 10:37 43.62467 21.85820 33639 ft 414 kts 291°
2026-05-06 10:37 43.63470 21.82120 33853 ft 415 kts 291°
2026-05-06 10:37 43.64476 21.78409 34058 ft 416 kts 291°
2026-05-06 10:38 43.65485 21.74678 34269 ft 416 kts 291°
2026-05-06 10:38 43.66491 21.70950 34467 ft 417 kts 291°
2026-05-06 10:38 43.67502 21.67194 34658 ft 418 kts 291°
2026-05-06 10:38 43.68508 21.63445 34852 ft 418 kts 291°
2026-05-06 10:39 43.69481 21.59650 35021 ft 419 kts 289°
2026-05-06 10:39 43.70400 21.55830 35016 ft 420 kts 289°
2026-05-06 10:39 43.72213 21.48207 35009 ft 420 kts 289°
2026-05-06 10:40 43.74037 21.40564 35015 ft 420 kts 289°
2026-05-06 10:40 43.75872 21.32891 35014 ft 420 kts 289°
2026-05-06 10:41 43.77688 21.25264 35011 ft 420 kts 288°
2026-05-06 10:41 43.79507 21.17612 35013 ft 419 kts 288°
2026-05-06 10:42 43.81314 21.10001 35013 ft 419 kts 288°
2026-05-06 10:42 43.83126 21.02343 35020 ft 419 kts 288°
2026-05-06 10:43 43.84929 20.94698 35023 ft 419 kts 288°
2026-05-06 10:44 43.87625 20.83220 35012 ft 419 kts 288°
2026-05-06 10:44 43.89423 20.75533 35015 ft 419 kts 288°
2026-05-06 10:45 43.91204 20.67904 35013 ft 419 kts 288°
2026-05-06 10:45 43.92991 20.60213 35011 ft 420 kts 288°
2026-05-06 10:46 43.94772 20.52517 35010 ft 420 kts 288°
2026-05-06 10:46 43.96545 20.44828 35010 ft 419 kts 288°
2026-05-06 10:47 43.98281 20.37279 35011 ft 420 kts 288°
2026-05-06 10:47 44.00045 20.29565 35012 ft 421 kts 287°
2026-05-06 10:48 44.01807 20.21824 35010 ft 422 kts 287°
2026-05-06 10:48 44.03578 20.14032 35013 ft 423 kts 287°
2026-05-06 10:49 44.05333 20.06276 35015 ft 422 kts 287°
2026-05-06 10:49 44.07095 19.98471 35018 ft 421 kts 287°
2026-05-06 10:50 44.08836 19.90740 35019 ft 421 kts 287°
2026-05-06 10:50 44.10582 19.82976 35017 ft 421 kts 287°
2026-05-06 10:51 44.12348 19.75200 35018 ft 422 kts 287°
2026-05-06 10:51 44.14096 19.67423 35021 ft 422 kts 286°
2026-05-06 10:52 44.15827 19.59641 35013 ft 422 kts 286°
2026-05-06 10:52 44.17553 19.51843 35007 ft 422 kts 286°
2026-05-06 10:53 44.19271 19.44041 35005 ft 422 kts 286°
2026-05-06 10:53 44.20979 19.36259 35017 ft 425 kts 286°
2026-05-06 10:54 44.22707 19.28329 35223 ft 428 kts 285°
2026-05-06 10:54 44.23571 19.24353 35414 ft 428 kts 285°
2026-05-06 10:54 44.24426 19.20414 35614 ft 427 kts 285°
2026-05-06 10:54 44.25286 19.16449 35807 ft 427 kts 285°
2026-05-06 10:55 44.26141 19.12505 35986 ft 426 kts 285°
2026-05-06 10:55 44.26991 19.08575 36164 ft 426 kts 285°
2026-05-06 10:55 44.27847 19.04608 36339 ft 425 kts 285°
2026-05-06 10:55 44.28686 19.00715 36492 ft 425 kts 285°
2026-05-06 10:56 44.29534 18.96777 36647 ft 424 kts 285°
2026-05-06 10:56 44.30387 18.92804 36809 ft 423 kts 285°
2026-05-06 10:56 44.31222 18.88903 36965 ft 423 kts 285°
2026-05-06 10:57 44.32893 18.81090 37003 ft 422 kts 285°
2026-05-06 10:57 44.34561 18.73258 37004 ft 422 kts 285°
2026-05-06 10:58 44.36230 18.65381 37001 ft 422 kts 285°
2026-05-06 10:58 44.37888 18.57534 36998 ft 422 kts 285°
2026-05-06 10:59 44.39536 18.49703 36998 ft 422 kts 285°
2026-05-06 10:59 44.41176 18.41883 36997 ft 422 kts 284°
2026-05-06 11:00 44.42826 18.33979 36999 ft 422 kts 284°
2026-05-06 11:00 44.44451 18.26142 36996 ft 422 kts 284°
2026-05-06 11:01 44.46077 18.18288 36996 ft 422 kts 284°
2026-05-06 11:01 44.47712 18.10363 36993 ft 423 kts 284°
2026-05-06 11:02 44.49333 18.02483 36986 ft 423 kts 284°
2026-05-06 11:02 44.50953 17.94577 36981 ft 423 kts 284°
2026-05-06 11:03 44.52564 17.86686 36983 ft 423 kts 283°
2026-05-06 11:03 44.54164 17.78819 36987 ft 422 kts 283°
2026-05-06 11:04 44.55764 17.70923 36991 ft 422 kts 283°
2026-05-06 11:04 44.57359 17.63020 36987 ft 422 kts 283°
2026-05-06 11:05 44.58940 17.55164 36997 ft 422 kts 283°
2026-05-06 11:05 44.60530 17.47242 36995 ft 421 kts 283°
2026-05-06 11:06 44.62103 17.39364 36998 ft 422 kts 283°
2026-05-06 11:06 44.63678 17.31442 36999 ft 422 kts 282°
2026-05-06 11:07 44.65283 17.23569 36985 ft 421 kts 283°
2026-05-06 11:07 44.66902 17.15646 36975 ft 421 kts 282°
2026-05-06 11:08 44.68502 17.07806 36977 ft 421 kts 283°
2026-05-06 11:08 44.70109 16.99881 36975 ft 420 kts 282°
2026-05-06 11:09 44.71647 16.91996 36972 ft 420 kts 281°
2026-05-06 11:09 44.73053 16.84016 36964 ft 420 kts 281°
2026-05-06 11:10 44.74447 16.76105 36967 ft 420 kts 281°
2026-05-06 11:10 44.75856 16.68128 36957 ft 421 kts 281°
2026-05-06 11:11 44.77264 16.60158 36960 ft 421 kts 281°
2026-05-06 11:11 44.78663 16.52209 36959 ft 422 kts 281°
2026-05-06 11:11 44.79373 16.48170 36601 ft 421 kts 281°
2026-05-06 11:12 44.80068 16.44210 36851 ft 419 kts 281°
2026-05-06 11:12 44.81456 16.36256 36950 ft 422 kts 281°
2026-05-06 11:13 44.82848 16.28230 36958 ft 422 kts 280°
2026-05-06 11:13 44.84235 16.20207 36952 ft 423 kts 280°
2026-05-06 11:14 44.85614 16.12202 36955 ft 423 kts 279°
2026-05-06 11:14 44.86990 16.04175 36954 ft 423 kts 279°
2026-05-06 11:15 44.88359 15.96152 36944 ft 423 kts 279°
2026-05-06 11:15 44.89723 15.88129 36942 ft 423 kts 279°
2026-05-06 11:16 44.91090 15.80048 36942 ft 423 kts 279°
2026-05-06 11:16 44.92440 15.72030 36938 ft 423 kts 279°
2026-05-06 11:17 44.93790 15.63977 36944 ft 423 kts 279°
2026-05-06 11:17 44.95135 15.55911 36946 ft 424 kts 279°
2026-05-06 11:18 44.96473 15.47863 36949 ft 423 kts 279°
2026-05-06 11:18 44.97807 15.39790 36948 ft 422 kts 279°
2026-05-06 11:19 44.99130 15.31751 36951 ft 421 kts 278°
2026-05-06 11:19 45.00449 15.23666 36944 ft 421 kts 278°
2026-05-06 11:20 45.01753 15.15663 36946 ft 421 kts 278°
2026-05-06 11:20 45.03057 15.07615 36950 ft 421 kts 278°
2026-05-06 11:21 45.04356 14.99572 36955 ft 422 kts 278°
2026-05-06 11:21 45.05656 14.91481 36965 ft 422 kts 278°
2026-05-06 11:22 45.06944 14.83422 36969 ft 423 kts 278°
2026-05-06 11:22 45.08226 14.75364 36964 ft 422 kts 278°
2026-05-06 11:23 45.09503 14.67308 36961 ft 422 kts 278°
2026-05-06 11:23 45.10790 14.59218 36960 ft 421 kts 278°
2026-05-06 11:24 45.12080 14.51149 36955 ft 421 kts 278°
2026-05-06 11:24 45.13347 14.43112 36952 ft 420 kts 278°
2026-05-06 11:25 45.14599 14.35080 36954 ft 420 kts 278°
2026-05-06 11:25 45.15850 14.26966 36954 ft 419 kts 277°
2026-05-06 11:26 45.17081 14.18948 36948 ft 419 kts 277°
2026-05-06 11:26 45.18309 14.10917 36950 ft 419 kts 277°
2026-05-06 11:27 45.19532 14.02879 36952 ft 419 kts 277°
2026-05-06 11:27 45.20749 13.94841 36943 ft 418 kts 277°
2026-05-06 11:28 45.21961 13.86800 36943 ft 418 kts 277°
2026-05-06 11:28 45.23172 13.78725 36938 ft 419 kts 277°
2026-05-06 11:29 45.24372 13.70672 36936 ft 420 kts 277°
2026-05-06 11:29 45.25570 13.62596 36929 ft 420 kts 277°
2026-05-06 11:30 45.26763 13.54523 36918 ft 420 kts 277°
2026-05-06 11:30 45.27962 13.46376 36917 ft 420 kts 276°
2026-05-06 11:31 45.29145 13.38296 36918 ft 420 kts 277°
2026-05-06 11:31 45.30316 13.30244 36916 ft 420 kts 276°
2026-05-06 11:32 45.31503 13.22152 36905 ft 420 kts 277°
2026-05-06 11:32 45.32789 13.14078 36912 ft 420 kts 277°
2026-05-06 11:33 45.34081 13.05989 36907 ft 421 kts 277°
2026-05-06 11:33 45.35358 12.97926 36902 ft 421 kts 277°
2026-05-06 11:34 45.36633 12.89841 36897 ft 421 kts 277°
2026-05-06 11:34 45.37911 12.81698 36901 ft 421 kts 277°
2026-05-06 11:35 45.39176 12.73586 36893 ft 421 kts 277°
2026-05-06 11:35 45.40434 12.65499 36907 ft 420 kts 277°
2026-05-06 11:36 45.41689 12.57370 36902 ft 420 kts 277°
2026-05-06 11:36 45.42932 12.49274 36910 ft 420 kts 277°
2026-05-06 11:37 45.44168 12.41188 36906 ft 420 kts 277°
2026-05-06 11:37 45.45401 12.33083 36906 ft 420 kts 276°
2026-05-06 11:38 45.46628 12.24967 36903 ft 420 kts 276°
2026-05-06 11:38 45.47852 12.16831 36897 ft 419 kts 276°
2026-05-06 11:39 45.49064 12.08739 36899 ft 419 kts 276°
2026-05-06 11:39 45.50287 12.00542 36893 ft 420 kts 276°
2026-05-06 11:40 45.51494 11.92409 36892 ft 419 kts 276°
2026-05-06 11:40 45.52692 11.84275 36891 ft 419 kts 276°
2026-05-06 11:41 45.53881 11.76181 36892 ft 420 kts 275°
2026-05-06 11:41 45.55074 11.68008 36890 ft 420 kts 275°
2026-05-06 11:42 45.56252 11.59902 36884 ft 419 kts 275°
2026-05-06 11:42 45.57422 11.51804 36885 ft 419 kts 276°
2026-05-06 11:43 45.58596 11.43651 36881 ft 418 kts 275°
2026-05-06 11:43 45.59752 11.35583 36893 ft 418 kts 275°
2026-05-06 11:44 45.61489 11.23382 36907 ft 418 kts 275°
2026-05-06 11:44 45.62633 11.15288 36657 ft 420 kts 275°
2026-05-06 11:45 45.63217 11.11153 35942 ft 421 kts 274°
2026-05-06 11:45 45.63746 11.07068 35299 ft 420 kts 271°
2026-05-06 11:45 45.64120 11.02989 34641 ft 417 kts 268°
2026-05-06 11:45 45.64347 10.98867 33841 ft 413 kts 266°
2026-05-06 11:46 45.64431 10.94810 33112 ft 409 kts 264°
2026-05-06 11:46 45.64478 10.90789 32401 ft 407 kts 264°
2026-05-06 11:46 45.64521 10.86761 31686 ft 405 kts 264°
2026-05-06 11:46 45.64560 10.82783 30958 ft 403 kts 264°
2026-05-06 11:47 45.64591 10.78776 30223 ft 402 kts 264°
2026-05-06 11:47 45.64621 10.74815 29481 ft 402 kts 264°
2026-05-06 11:47 45.64649 10.70831 28628 ft 404 kts 264°
2026-05-06 11:47 45.64677 10.66863 27943 ft 403 kts 264°
2026-05-06 11:48 45.64704 10.62862 27199 ft 403 kts 264°
2026-05-06 11:48 45.64722 10.58861 26433 ft 404 kts 265°
2026-05-06 11:48 45.64741 10.54876 25662 ft 404 kts 265°
2026-05-06 11:48 45.64756 10.50883 24884 ft 405 kts 265°
2026-05-06 11:49 45.64771 10.46878 24105 ft 405 kts 265°
2026-05-06 11:49 45.64785 10.42906 23388 ft 403 kts 265°
2026-05-06 11:49 45.64796 10.38899 22722 ft 401 kts 265°
2026-05-06 11:49 45.64807 10.34964 22120 ft 398 kts 265°
2026-05-06 11:50 45.64820 10.31047 21522 ft 394 kts 265°
2026-05-06 11:50 45.64836 10.27133 20946 ft 391 kts 265°
2026-05-06 11:50 45.64849 10.23319 20312 ft 390 kts 265°
2026-05-06 11:50 45.64861 10.19423 19690 ft 389 kts 265°
2026-05-06 11:51 45.64869 10.15597 19113 ft 385 kts 265°
2026-05-06 11:51 45.64875 10.11779 18894 ft 385 kts 265°
2026-05-06 11:51 45.64884 10.07980 18894 ft 387 kts 265°
2026-05-06 11:51 45.64898 10.04149 18776 ft 383 kts 265°
2026-05-06 11:52 45.64913 10.00374 18087 ft 385 kts 265°
2026-05-06 11:52 45.64925 9.96536 17080 ft 393 kts 266°
2026-05-06 11:52 45.64936 9.92633 16256 ft 394 kts 266°
2026-05-06 11:52 45.64953 9.88740 15627 ft 390 kts 266°
2026-05-06 11:53 45.64968 9.84924 14995 ft 387 kts 266°
2026-05-06 11:53 45.64978 9.81120 14373 ft 383 kts 266°
2026-05-06 11:53 45.64984 9.77340 13738 ft 380 kts 266°
2026-05-06 11:53 45.65035 9.73565 13050 ft 379 kts 268°
2026-05-06 11:54 45.65126 9.69750 12406 ft 376 kts 269°
2026-05-06 11:54 45.65216 9.66051 11840 ft 372 kts 269°
2026-05-06 11:54 45.65299 9.62376 11291 ft 368 kts 268°
2026-05-06 11:54 45.65321 9.58726 10759 ft 363 kts 267°
2026-05-06 11:55 45.65314 9.55187 10386 ft 354 kts 267°
2026-05-06 11:55 45.65312 9.51754 10265 ft 338 kts 266°
2026-05-06 11:55 45.65311 9.48454 10140 ft 323 kts 266°
2026-05-06 11:55 45.65310 9.45314 10034 ft 309 kts 266°
2026-05-06 11:56 45.65310 9.42307 9945 ft 295 kts 266°
2026-05-06 11:56 45.65309 9.39447 9789 ft 285 kts 266°
2026-05-06 11:56 45.65281 9.36644 9433 ft 282 kts 261°
2026-05-06 11:56 45.64922 9.34035 9106 ft 275 kts 248°
2026-05-06 11:57 45.64195 9.31540 8779 ft 270 kts 241°
2026-05-06 11:57 45.63390 9.29169 8455 ft 267 kts 240°
2026-05-06 11:57 45.62574 9.26804 8133 ft 265 kts 240°
2026-05-06 11:57 45.61753 9.24416 7901 ft 270 kts 240°
2026-05-06 11:58 45.60925 9.22000 7567 ft 273 kts 240°
2026-05-06 11:58 45.60092 9.19559 7170 ft 272 kts 240°
2026-05-06 11:58 45.59265 9.17135 6822 ft 270 kts 240°
2026-05-06 11:58 45.58440 9.14710 6480 ft 268 kts 240°
2026-05-06 11:59 45.57633 9.12346 6152 ft 266 kts 240°
2026-05-06 11:59 45.56825 9.09984 5823 ft 265 kts 240°
2026-05-06 11:59 45.56021 9.07626 5511 ft 262 kts 240°
2026-05-06 11:59 45.55223 9.05289 5210 ft 260 kts 240°
2026-05-06 12:00 45.54439 9.02991 4962 ft 255 kts 241°
2026-05-06 12:00 45.53670 9.00745 4642 ft 245 kts 241°
2026-05-06 12:00 45.52923 8.98563 4360 ft 246 kts 241°
2026-05-06 12:00 45.52178 8.96393 3974 ft 242 kts 241°
2026-05-06 12:01 45.51407 8.94152 3455 ft 241 kts 242°
2026-05-06 12:01 45.50674 8.92001 3239 ft 229 kts 246°
2026-05-06 12:01 45.50247 8.89793 3029 ft 216 kts 262°
2026-05-06 12:01 45.50175 8.87681 3024 ft 203 kts 267°
2026-05-06 12:02 45.50160 8.85654 3013 ft 203 kts 268°
2026-05-06 12:02 45.50143 8.83610 3022 ft 202 kts 268°
2026-05-06 12:02 45.50124 8.81702 3057 ft 187 kts 267°
2026-05-06 12:02 45.50101 8.79866 3020 ft 181 kts 266°
2026-05-06 12:03 45.50096 8.78104 2919 ft 178 kts 274°
2026-05-06 12:03 45.50657 8.76557 2575 ft 181 kts 326°
2026-05-06 12:03 45.51853 8.76023 2541 ft 179 kts 354°
2026-05-06 12:03 45.53047 8.75849 2365 ft 166 kts 356°
2026-05-06 12:04 45.54178 8.75678 2170 ft 163 kts 356°
2026-05-06 12:04 45.55298 8.75467 1961 ft 158 kts 354°
2026-05-06 12:04 45.56347 8.75199 1723 ft 150 kts 352°
2026-05-06 12:04 45.57381 8.74905 1544 ft 148 kts 353°
2026-05-06 12:05 45.58386 8.74622 1352 ft 149 kts 351°
2026-05-06 12:05 45.59404 8.74342 1149 ft 148 kts 352°
2026-05-06 12:05 45.60412 8.74071 955 ft 146 kts 353°
2026-05-06 12:05 45.61407 8.73801 776 ft 145 kts 352°
2026-05-06 12:06 45.62368 8.73541 716 ft 126 kts 345°
2026-05-06 12:06 45.63099 8.73347 732 ft 86 kts 349°
2026-05-06 12:06 45.63598 8.73172 743 ft 66 kts 338°
2026-05-06 12:06 45.63876 8.72796 751 ft 42 kts 304°
2026-05-06 12:07 45.63948 8.72480 754 ft 31 kts 259°
2026-05-06 12:07 45.63916 8.72216 755 ft 21 kts 265°
2026-05-06 12:07 45.63913 8.72014 756 ft 19 kts 265°
2026-05-06 12:07 45.63862 8.71844 757 ft 18 kts 211°
2026-05-06 12:08 45.63732 8.71844 754 ft 19 kts 168°
2026-05-06 12:08 45.63590 8.71884 750 ft 21 kts 169°
2026-05-06 12:08 45.63474 8.71912 747 ft 11 kts 183°
2026-05-06 12:08 45.63425 8.71840 746 ft 9 kts 241°
2026-05-06 12:09 45.63398 8.71827 746 ft 3 kts 166°
2026-05-06 12:09 45.63350 8.71839 744 ft 11 kts 169°
2026-05-06 12:09 45.63242 8.71870 743 ft 19 kts 169°
2026-05-06 12:09 45.63088 8.71911 739 ft 23 kts 169°
2026-05-06 12:10 45.62925 8.71958 737 ft 23 kts 169°
2026-05-06 12:10 45.62762 8.72005 733 ft 21 kts 173°
2026-05-06 12:10 45.62669 8.71950 733 ft 13 kts 255°
2026-05-06 12:10 45.62650 8.71821 733 ft 13 kts 259°
2026-05-06 12:11 45.62632 8.71685 733 ft 13 kts 259°
2026-05-06 12:11 45.62620 8.71601 733 ft 3 kts 257°
2026-05-06 12:11 45.62602 8.71590 733 ft 3 kts 176°
2026-05-06 12:11 45.62567 8.71599 733 ft 6 kts 169°
2026-05-06 12:12 45.62539 8.71607 732 ft 2 kts 168°
2026-05-06 12:12 45.62534 8.71608 732 ft 0 kts 168°
2026-05-06 12:12 45.62533 8.71608 732 ft 0 kts 168°
2026-05-06 12:12 45.62535 8.71608 732 ft 0 kts 168°